[[{"header":{"parameterUnit":"m.s-1","parameterCategory":1,"la1":30.2991,"la2":30.254,"lo1":-89.0895,"lo2":-89.0444,"dy":0.0017,"dx":0.0017,"nx":28,"ny":28,"refTime":"2025-08-29T21:00:00:Z","depth":0,"parameterNumber":2,"parameterNumberName":"U-component_of_WINDS"},"data":[0,0,0,0,0,0,0,0,0,0,0,0,0,0,0,0,0,0,0,0,0,0,0,0,0,0,0,0,0,0,0,0,0,0,0,0,0,0,0,0,0,0,0,0,0,0,0,0,0,0,0,0,0,0,0,0,0,0,-0.6614,-0.6614,0,-0.6623,-0.6623,-0.6623,-0.6605,-0.6604,-0.6604,-0.6603,-0.6613,-0.6614,-0.6614,0,0,0,0,0,0,0,0,0,0,0,0,0,-0.6581,-0.6582,-0.6614,-0.6614,-0.6614,-0.6623,-0.6623,-0.6623,-0.6605,-0.6604,-0.6604,-0.6603,-0.6612,-0.6613,-0.6614,0,0,0,0,0,0,0,0,0,0,0,0,0,-0.6593,-0.6582,-0.6614,-0.6606,-0.6605,-0.6623,-0.6623,-0.6623,-0.6605,-0.6604,-0.6603,-0.6603,-0.6612,-0.6613,-0.6615,-0.664,0,0,-0.6618,-0.6619,0,0,0,0,0,0,0,0,-0.6593,-0.6595,-0.6607,-0.6607,-0.6606,-0.6612,-0.6615,-0.6629,-0.6605,-0.6605,-0.6603,-0.6602,-0.6613,-0.6614,-0.6618,-0.664,-0.664,-0.6618,-0.6619,-0.662,-0.662,0,0,0,0,0,0,0,-0.6592,-0.6594,-0.6617,-0.6607,-0.6607,-0.6602,-0.6603,-0.6617,-0.6614,-0.6605,-0.6604,-0.6605,-0.6613,-0.6617,-0.6618,-0.6641,-0.6618,-0.6619,-0.662,-0.6621,-0.6684,-0.6685,0,0,0,0,0,0,-0.6592,-0.6593,-0.6617,-0.6617,-0.6597,-0.6604,-0.6604,-0.6611,-0.6614,-0.6613,-0.6606,-0.6604,-0.6615,-0.6617,-0.6618,-0.6647,-0.662,-0.6621,-0.6621,-0.6683,-0.6684,-0.6685,0,0,0,0,0,0,-0.6591,-0.6594,-0.6617,-0.6605,-0.6608,-0.6605,-0.6612,-0.6611,-0.6615,-0.6614,-0.6614,-0.6611,-0.6614,-0.6617,-0.6634,-0.6647,-0.6621,-0.6622,-0.6682,-0.6683,-0.6685,-0.6706,0,0,0,0,0,0,-0.659,-0.6594,-0.6603,-0.6605,-0.6608,-0.6632,-0.6613,-0.6612,-0.6618,-0.6616,-0.6619,-0.6618,-0.6614,-0.6633,-0.6636,-0.6649,-0.6623,-0.6681,-0.6682,-0.6684,-0.6704,-0.6708,-0.6712,0,0,0,0,0,-0.6589,-0.6609,-0.6604,-0.6607,-0.662,-0.6633,-0.6635,-0.6629,-0.6619,-0.6628,-0.6628,-0.6618,-0.6646,-0.6635,-0.6638,-0.6651,-0.668,-0.6682,-0.6684,-0.6703,-0.6707,-0.6711,0,0,0,0,0,0,-0.6609,-0.6609,-0.6603,-0.6625,-0.6629,-0.663,-0.6642,-0.6635,-0.6642,-0.664,-0.6633,-0.6634,-0.6653,-0.6654,-0.6642,-0.6676,-0.6661,-0.6664,-0.6674,-0.6679,-0.6682,-0.6681,-0.6624,0,0,0,0,0,-0.6615,-0.6626,-0.6626,-0.6645,-0.6647,-0.6644,-0.665,-0.6645,-0.665,-0.6651,-0.6652,-0.6657,-0.6666,-0.6673,-0.6682,-0.6705,-0.6705,-0.6716,-0.6719,-0.6722,-0.6725,-0.6737,-0.6741,-0.6692,-0.6692,-0.6692,0,0,-0.6629,-0.6631,-0.6638,-0.6649,-0.6651,-0.6663,-0.6646,-0.6658,-0.6667,-0.6653,-0.667,-0.6671,-0.6675,-0.6696,-0.6705,-0.6698,-0.6739,-0.6725,-0.6728,-0.6728,-0.6739,-0.6744,-0.6748,-0.6694,-0.6693,-0.6693,0,0,-0.666,-0.6663,-0.6678,-0.6682,-0.6686,-0.6684,-0.6688,-0.6691,-0.669,-0.6707,-0.6697,-0.6707,-0.6724,-0.6728,-0.6732,-0.6765,-0.6757,-0.6768,-0.6787,-0.6799,-0.6802,-0.6806,-0.6817,-0.6821,-0.6771,-0.6771,-0.6771,0,-0.6677,-0.6693,-0.6687,-0.67,-0.6705,-0.6694,-0.671,-0.6713,-0.6721,-0.6724,-0.6716,-0.6737,-0.6739,-0.6761,-0.6769,-0.6773,-0.6777,-0.6767,-0.6802,-0.6806,-0.6809,-0.6819,-0.6823,-0.6772,-0.6772,-0.6772,-0.6772,0,-0.6713,-0.6724,-0.6737,-0.6744,-0.675,-0.6765,-0.6761,-0.6769,-0.6764,-0.6763,-0.678,-0.6783,-0.6792,-0.6797,-0.6792,-0.6817,-0.6812,-0.6804,-0.6788,-0.6815,-0.6824,-0.6829,-0.6774,-0.6774,-0.6773,-0.6773,0,0,-0.6755,-0.6759,-0.6764,-0.6767,-0.6771,-0.678,-0.6795,-0.6803,-0.6809,-0.6815,-0.6827,-0.6842,-0.6833,-0.6838,-0.6834,-0.6845,-0.687,-0.6834,-0.6834,-0.684,-0.6897,-0.6903,-0.6908,-0.6865,-0.6866,-0.6867,-0.6896,0,-0.6785,-0.6809,-0.6804,-0.6828,-0.6838,-0.6828,-0.684,-0.6845,-0.6844,-0.6853,-0.6853,-0.6863,-0.6852,-0.6855,-0.6865,-0.6865,-0.6881,-0.6863,-0.6875,-0.6876,-0.6873,-0.6913,-0.6919,-0.6947,-0.69,-0.6901,-0.6901,0,-0.6822,-0.6829,-0.6854,-0.6857,-0.6861,-0.6872,-0.688,-0.6889,-0.6894,-0.6893,-0.6898,-0.6892,-0.6907,-0.6892,-0.6911,-0.6899,-0.6904,-0.6905,-0.6906,-0.6906,-0.6889,-0.6913,-0.6956,-0.696,-0.6908,-0.6907,-0.6907,0,-0.685,-0.6865,-0.6882,-0.6885,-0.6889,-0.6897,-0.6899,-0.6903,-0.6909,-0.6916,-0.692,-0.6929,-0.6933,-0.694,-0.6937,-0.6927,-0.6957,-0.6942,-0.6956,-0.6956,-0.6961,-0.6961,-0.7005,-0.6967,-0.6967,-0.6967,-0.6967,0,-0.6883,-0.6898,-0.6894,-0.6904,-0.6921,-0.6916,-0.6933,-0.6934,-0.6937,-0.6947,-0.694,-0.695,-0.6945,-0.6955,-0.6952,-0.6968,-0.6971,-0.697,-0.6969,-0.697,-0.697,-0.6972,-0.697,-0.6968,-0.6967,-0.6967,-0.6967,0,-0.6915,-0.6913,-0.693,-0.6933,-0.6934,-0.6946,-0.6949,-0.6958,-0.6958,-0.6971,-0.6973,-0.6973,-0.6983,-0.6981,-0.6993,-0.6992,-0.7011,-0.7009,-0.701,-0.7008,-0.7022,-0.702,-0.7068,-0.7074,-0.7033,-0.7033,-0.7034,0,-0.6936,-0.6947,-0.6951,-0.6957,-0.696,-0.697,-0.6976,-0.6972,-0.6978,-0.6985,-0.6994,-0.7004,-0.7012,-0.7029,-0.703,-0.7039,-0.7036,-0.7052,-0.7037,-0.7037,-0.7035,-0.7033,-0.7034,-0.7054,-0.7055,-0.7055,-0.7055,0,-0.6972,-0.6971,-0.698,-0.6988,-0.6995,-0.7002,-0.7007,-0.7013,-0.701,-0.7017,-0.7028,-0.7034,-0.7046,-0.7056,-0.7065,-0.7067,-0.7061,-0.706,-0.7064,-0.7064,-0.7064,-0.7063,-0.7016,-0.7059,-0.7059,-0.7058,-0.7058,-0.7058,-0.6999,-0.7008,-0.7013,-0.7022,-0.7026,-0.7032,-0.7041,-0.7042,-0.7051,-0.706,-0.7058,-0.707,-0.7075,-0.7086,-0.7089,-0.7099,-0.7092,-0.7098,-0.7099,-0.71,-0.7101,-0.7064,-0.71,-0.71,-0.71,-0.71,-0.71,0,-0.7034,-0.7037,-0.7046,-0.7054,-0.7062,-0.7056,-0.7062,-0.7069,-0.7079,-0.7084,-0.7092,-0.7105,-0.7115,-0.7116,-0.7126,-0.7133,-0.713,-0.7135,-0.7134,-0.7135,-0.7107,-0.7102,-0.7138,-0.7138,-0.7137,-0.7137,-0.7137,-0.7137,-0.7053,-0.7069,-0.7068,-0.7086,-0.7088,-0.71,-0.7104,-0.7109,-0.7113,-0.7127,-0.7135,-0.7137,-0.714,-0.715,-0.7159,-0.7159,-0.7162,-0.7168,-0.7167,-0.7141,-0.7137,-0.7133,-0.7129,-0.7169,-0.7169,-0.7195,-0.7195,-0.7195]},{"header":{"parameterUnit":"m.s-1","parameterCategory":1,"la1":30.2991,"la2":30.254,"lo1":-89.0895,"lo2":-89.0444,"dy":0.0017,"dx":0.0017,"nx":28,"ny":28,"refTime":"2025-08-29T21:00:00:Z","depth":0,"parameterNumber":3,"parameterNumberName":"V-component_of_WINDS"},"data":[0,0,0,0,0,0,0,0,0,0,0,0,0,0,0,0,0,0,0,0,0,0,0,0,0,0,0,0,0,0,0,0,0,0,0,0,0,0,0,0,0,0,0,0,0,0,0,0,0,0,0,0,0,0,0,0,0,0,-0.4151,-0.4152,0,-0.4209,-0.4209,-0.421,-0.4251,-0.4251,-0.4252,-0.4252,-0.4311,-0.4313,-0.4314,0,0,0,0,0,0,0,0,0,0,0,0,0,-0.4078,-0.4079,-0.4151,-0.4152,-0.4153,-0.4208,-0.4209,-0.421,-0.4251,-0.4251,-0.4252,-0.4252,-0.4311,-0.4312,-0.4314,0,0,0,0,0,0,0,0,0,0,0,0,0,-0.412,-0.408,-0.4151,-0.418,-0.4183,-0.4208,-0.4209,-0.421,-0.4251,-0.4251,-0.4252,-0.4252,-0.431,-0.4312,-0.4314,-0.4316,0,0,-0.432,-0.4321,0,0,0,0,0,0,0,0,-0.4118,-0.4123,-0.4175,-0.4178,-0.4181,-0.4223,-0.4205,-0.4246,-0.4251,-0.4225,-0.4252,-0.4253,-0.4282,-0.4286,-0.4296,-0.4318,-0.4321,-0.432,-0.4321,-0.4322,-0.4323,0,0,0,0,0,0,0,-0.4115,-0.412,-0.4174,-0.4176,-0.418,-0.419,-0.4197,-0.4213,-0.425,-0.4227,-0.4231,-0.4237,-0.4284,-0.4294,-0.4297,-0.4322,-0.432,-0.4322,-0.4323,-0.4324,-0.435,-0.4349,0,0,0,0,0,0,-0.4107,-0.4118,-0.4172,-0.4176,-0.415,-0.4191,-0.4198,-0.4209,-0.425,-0.4256,-0.4236,-0.4238,-0.429,-0.4295,-0.4299,-0.4304,-0.4322,-0.4324,-0.4325,-0.435,-0.4349,-0.4349,0,0,0,0,0,0,-0.4105,-0.4112,-0.417,-0.4148,-0.4156,-0.4192,-0.4204,-0.421,-0.422,-0.4256,-0.4263,-0.424,-0.4291,-0.4297,-0.4311,-0.4307,-0.4325,-0.4326,-0.4351,-0.435,-0.4349,-0.4314,0,0,0,0,0,0,-0.4103,-0.4111,-0.4111,-0.4147,-0.4157,-0.418,-0.4203,-0.4211,-0.4223,-0.4227,-0.4262,-0.4268,-0.4292,-0.4308,-0.4313,-0.431,-0.4328,-0.4351,-0.435,-0.4349,-0.4315,-0.4312,-0.4309,0,0,0,0,0,-0.41,-0.4099,-0.4111,-0.4118,-0.4158,-0.418,-0.4185,-0.4213,-0.4223,-0.4224,-0.4247,-0.4267,-0.4307,-0.431,-0.4315,-0.4312,-0.4351,-0.435,-0.4349,-0.4317,-0.4312,-0.4309,0,0,0,0,0,0,-0.4062,-0.4104,-0.4118,-0.4128,-0.415,-0.4187,-0.4189,-0.4207,-0.4227,-0.4229,-0.4262,-0.427,-0.4281,-0.4298,-0.4301,-0.4316,-0.4332,-0.4332,-0.4305,-0.4301,-0.4298,-0.4293,-0.4329,0,0,0,0,0,-0.4054,-0.4068,-0.4105,-0.411,-0.412,-0.4153,-0.4163,-0.4182,-0.4206,-0.4216,-0.424,-0.4263,-0.4281,-0.4292,-0.431,-0.4318,-0.4327,-0.4319,-0.4316,-0.4313,-0.4313,-0.4319,-0.4316,-0.4346,-0.4346,-0.4346,0,0,-0.4039,-0.4064,-0.4071,-0.4103,-0.4122,-0.4136,-0.416,-0.4174,-0.4184,-0.4218,-0.4233,-0.4252,-0.428,-0.4291,-0.4297,-0.4306,-0.4306,-0.4312,-0.4309,-0.431,-0.4317,-0.4314,-0.4312,-0.4345,-0.4345,-0.4345,0,0,-0.4019,-0.4039,-0.4046,-0.4065,-0.4094,-0.4115,-0.4117,-0.4151,-0.4165,-0.418,-0.4206,-0.422,-0.4249,-0.4268,-0.4282,-0.4269,-0.4288,-0.4274,-0.4257,-0.4262,-0.426,-0.4258,-0.4254,-0.4252,-0.4274,-0.4274,-0.4274,0,-0.3996,-0.4018,-0.4047,-0.4059,-0.4073,-0.4104,-0.4112,-0.4129,-0.4162,-0.4171,-0.418,-0.4218,-0.4239,-0.4255,-0.4252,-0.4262,-0.4265,-0.427,-0.4258,-0.4256,-0.4255,-0.4251,-0.425,-0.4272,-0.4272,-0.4272,-0.4272,0,-0.3989,-0.4004,-0.4006,-0.4038,-0.4052,-0.4061,-0.4092,-0.4103,-0.4121,-0.4142,-0.4158,-0.4184,-0.4208,-0.4214,-0.4231,-0.4233,-0.4237,-0.4252,-0.4267,-0.425,-0.4247,-0.4246,-0.4269,-0.427,-0.427,-0.4271,0,0,-0.3946,-0.3993,-0.3994,-0.4009,-0.4043,-0.4055,-0.4066,-0.409,-0.4099,-0.4121,-0.4132,-0.4156,-0.417,-0.4185,-0.4206,-0.421,-0.4199,-0.4225,-0.4226,-0.4219,-0.4203,-0.4192,-0.419,-0.4212,-0.4212,-0.4212,-0.4201,0,-0.3931,-0.3953,-0.3979,-0.3992,-0.4007,-0.4037,-0.4047,-0.4069,-0.4089,-0.4104,-0.4126,-0.4143,-0.416,-0.417,-0.4176,-0.4199,-0.4196,-0.42,-0.4222,-0.4223,-0.4215,-0.4188,-0.4176,-0.4165,-0.42,-0.4199,-0.4199,0,-0.3916,-0.3937,-0.3951,-0.3984,-0.3991,-0.4,-0.4024,-0.4038,-0.4064,-0.4079,-0.4096,-0.4118,-0.4132,-0.4146,-0.4166,-0.4168,-0.4179,-0.4192,-0.4192,-0.4195,-0.421,-0.4191,-0.4162,-0.416,-0.4198,-0.4198,-0.4198,0,-0.3883,-0.3914,-0.3927,-0.3939,-0.3978,-0.3984,-0.4,-0.4027,-0.404,-0.4061,-0.407,-0.4093,-0.4105,-0.4122,-0.415,-0.4158,-0.4167,-0.4183,-0.418,-0.4179,-0.418,-0.418,-0.4152,-0.4187,-0.4187,-0.4187,-0.4187,0,-0.3863,-0.3871,-0.3913,-0.392,-0.393,-0.3961,-0.397,-0.399,-0.4013,-0.4026,-0.4053,-0.4064,-0.41,-0.4115,-0.4137,-0.4151,-0.4156,-0.4168,-0.4174,-0.4166,-0.4164,-0.4173,-0.4175,-0.4186,-0.4187,-0.4187,-0.4187,0,-0.3828,-0.3856,-0.3872,-0.3908,-0.3918,-0.3923,-0.3954,-0.3963,-0.3985,-0.4,-0.4006,-0.404,-0.406,-0.4089,-0.4118,-0.4132,-0.4142,-0.4152,-0.4133,-0.4137,-0.4132,-0.4132,-0.4109,-0.4108,-0.4142,-0.4142,-0.4142,0,-0.3813,-0.382,-0.3857,-0.3867,-0.3883,-0.3899,-0.3913,-0.3944,-0.3957,-0.3987,-0.3993,-0.4014,-0.4034,-0.4064,-0.4091,-0.4113,-0.4124,-0.4114,-0.4127,-0.4119,-0.4124,-0.4123,-0.4124,-0.4111,-0.411,-0.411,-0.411,0,-0.3785,-0.3799,-0.3817,-0.384,-0.3855,-0.3875,-0.3896,-0.3903,-0.3938,-0.3951,-0.3972,-0.3987,-0.4016,-0.4037,-0.4063,-0.4081,-0.4101,-0.4105,-0.4106,-0.4098,-0.4087,-0.4093,-0.4125,-0.4106,-0.4106,-0.4106,-0.4107,-0.4107,-0.376,-0.3767,-0.3795,-0.3814,-0.3833,-0.3852,-0.3863,-0.3886,-0.3903,-0.393,-0.3947,-0.3967,-0.3993,-0.403,-0.4047,-0.4063,-0.4072,-0.4072,-0.4072,-0.4072,-0.4069,-0.4084,-0.4068,-0.4068,-0.4068,-0.4069,-0.4069,0,-0.3733,-0.3752,-0.377,-0.3798,-0.3814,-0.3832,-0.3856,-0.3868,-0.3884,-0.3908,-0.3926,-0.395,-0.3971,-0.4,-0.4024,-0.4031,-0.4041,-0.4036,-0.4036,-0.404,-0.406,-0.4058,-0.4028,-0.4028,-0.4028,-0.4028,-0.4028,-0.4028,-0.3721,-0.3735,-0.3752,-0.3775,-0.3795,-0.3814,-0.3827,-0.3845,-0.3863,-0.3889,-0.3906,-0.3925,-0.3951,-0.3977,-0.3997,-0.4006,-0.4013,-0.4005,-0.4016,-0.4035,-0.4038,-0.4042,-0.404,-0.4007,-0.4007,-0.3995,-0.3995,-0.3995]}]]